Погода в Багдаде

Узбекистан     40°27′40″N   71°12′43″E
темп.,
°C
ветер,
м/с
пор.,
м/с
влажн.,
%
обл.,
%
осадки,
мм/ч
давл.,
гПа
погр.,
м
23 октября, сб
сб2323:00+8всв2255100 0.0 103635
02:00+7сз016277 0.0 103617
05:00+5св11685 0.0 103517
08:00+7всв22570 0.0 1035168
11:00+13всв45330 0.0 10331159
14:00+15всв34230 0.0 10291447
17:00+14всв23230 0.0 102851
20:00+11вюв22270 0.0 102912
24 октября, вс
вс2423:00+9в11290 0.0 102812
02:00+8всв11340 0.0 102713
05:00+6ссв11450 0.0 102614
08:00+8всв12360 0.0 1025102
11:00+15всв34210 0.0 1022708
14:00+18всв34130 0.0 10181101
17:00+16св11150 0.0 101711
20:00+13ююв11180 0.0 101710
25 октября, пн
пн2523:00+11в11210 0.0 101711
02:00+10всв11240 0.0 101711
05:00+8всв11310 0.0 101813
08:00+10св11290 0.0 101967
11:00+17св33200 0.0 1017604
14:00+20всв23140 0.0 10151009
17:00+18в11170 0.0 101511
20:00+15юз11210 0.0 101611
26 октября, вт
вт2623:00+13в01240 0.0 101711
02:00+11св11270 0.0 101711
05:00+10св113079 0.0 101811
08:00+12св1229100 0.0 102057
11:00+17св2220100 0.0 1019494
14:00+20ссз1117100 0.0 1018720
17:00+17ссз112129 0.0 101811
20:00+15ююз11251 0.0 102011
27 октября, ср
ср2723:00+13ююв11275 0.0 102010
02:00+12св113094 0.0 102111
05:00+11с0032100 0.0 102110
08:00+12з2229100 0.0 102266
11:00+17з7732100 0.0 1022803
14:00+17з91036100 0.0 1021930
17:00+15зюз91445100 0.0 1022744
20:00+14зюз81346100 0.0 1024776